This demonstration page uses our WeatherBlox Daily Observations layout. Learn more.

Left ArrowRight Arrow

41.55636, -103.73856

Hourly Observations for December 12, 2020

Temp ( °F °C ) Dew Point ( °F °C ) Humidity (%) Winds ( mph kmh ) Pressure ( in mb ) Visibility ( mi km ) Precip ( " mm )
12:58 am 00:58 Clear 16 -9.1 12 -11.1 86 86 SW 6 9 30.14 1021 10 16 0.00 0.00
1:58 am 01:58 Clear 15 -9.4 14 -10.2 94 94 SSW 8 13 30.16 1022 10 16 0.00 0.00
2:58 am 02:58 Clear 13 -10.5 11 -11.8 90 90 SSW 8 13 30.16 1021 10 16 0.00 0.00
3:58 am 03:58 Clear 16 -8.9 13 -10.7 87 87 SSW 6 9 30.11 1020 10 16 0.00 0.00
4:58 am 04:58 Clear 17 -8.6 13 -10.6 86 86 WSW 7 11 30.10 1019 10 16 0.00 0.00
5:58 am 05:58 Clear 16 -8.7 13 -10.4 88 88 WSW 5 7 30.11 1020 10 16 0.00 0.00
6:58 am 06:58 Mostly Cloudy 19 -7 17 -8.5 89 89 SW 8 13 30.10 1019 10 16 0.00 0.00
7:58 am 07:58 Mostly Cloudy 21 -6 18 -7.8 87 87 WSW 8 13 30.08 1019 10 16 0.00 0.00
8:58 am 08:58 Mostly Cloudy 24 -4.7 19 -7 84 84 SW 8 13 30.11 1020 10 16 0.00 0.00
9:58 am 09:58 Mostly Cloudy 26 -3.6 22 -5.8 85 85 SW 10 17 30.10 1019 10 16 0.00 0.00
10:58 am 10:58 Mostly Cloudy 26 -3.4 21 -6 82 82 WSW 8 13 30.09 1019 10 16 0.00 0.00
11:58 am 11:58 Mostly Cloudy 28 -2.5 21 -6.1 77 77 SW 6 9 30.05 1018 10 16 0.00 0.00
12:58 pm 12:58 Cloudy 29 -1.7 21 -5.9 73 73 Calm 30.04 1017 10 16 0.00 0.00
1:58 pm 13:58 Cloudy 30 -1.2 21 -6.3 69 69 Calm 30.01 1016 10 16 0.00 0.00
2:58 pm 14:58 Mostly Cloudy with Light Snow Showers 28 -2 23 -5.1 80 80 ESE 5 7 30.05 1018 3 4 0.00 0.00
3:58 pm 15:58 Cloudy 29 -1.9 21 -6 74 74 ESE 3 6 30.07 1018 10 16 0.00 0.00
4:58 pm 16:58 Cloudy with Light Snow Showers 27 -2.9 23 -5 86 86 SE 3 6 30.11 1020 5 8 0.00 0.00
5:58 pm 17:58 Cloudy with Light Snow 26 -3.6 23 -4.8 92 92 ESE 3 6 30.14 1021 2 4 0.00 0.00
6:58 pm 18:58 Cloudy with Light Snow 25 -4 24 -4.7 95 95 NE 5 7 30.16 1022 3 4 0.00 0.00
7:58 pm 19:58 Cloudy with Light Snow 25 -3.9 24 -4.6 95 95 Calm 30.19 1023 2 3 0.01 0.25
8:58 pm 20:58 Cloudy with Light Snow 25 -4 24 -4.6 96 96 N 6 9 30.20 1023 2 3 0.01 0.25
9:58 pm 21:58 Cloudy with Light Snow 25 -4 23 -5 93 93 N 14 22 30.24 1024 5 8 0.01 0.25
10:58 pm 22:58 Mostly Cloudy with Light Snow 24 -4.7 19 -7 84 84 NNW 13 20 30.27 1025 10 16 0.00 0.00
11:58 pm 23:58 Mostly Cloudy 20 -6.8 17 -8.6 87 87 WNW 8 13 30.30 1026 10 16 0.00 0.00

Powered by AerisWeather